Vorticity
-4 -1 13 13 8 5 8 9 8 7 8 11 11 11 10 10 10 11 11 10 8 9 13 10 23 9 -24 25 10 8 6 4 9 6 3 1 7 3 5 10 12 13 16
5 9 11 5 8 8 5 8 11 11 12 12 13 13 12 12 12 12 12 13 14 13 7 13 6 -6 -2 17 9 17 10 8 5 5 5 7 -1 -0 -1 -1 9 13 5
1 3 11 10 7 5 10 11 11 12 12 12 13 14 16 15 16 17 19 18 14 17 14 12 14 13 3 -1 10 7 16 14 10 7 7 9 7 7 -1 12 9 9 9
7 7 18 5 4 12 11 11 10 8 8 7 6 5 3 4 5 6 10 13 16 16 17 16 11 10 15 22 9 -4 17 1 10 10 9 10 7 9 13 -0 4 5 9
8 21 0 3 10 9 7 6 7 8 7 7 8 9 10 11 11 11 12 10 10 12 20 21 9 7 8 11 15 24 17 20 16 13 13 7 10 9 13 15 -0 8 13
6 3 8 9 6 8 6 7 6 3 4 5 7 8 8 9 10 11 11 9 8 9 12 11 16 24 24 15 9 7 9 2 1 5 8 5 1 -1 -10 -8 -2 7 8
-14 7 13 10 13 8 7 4 5 5 7 9 8 7 7 7 8 9 12 12 12 11 8 5 8 14 11 22 26 23 16 17 15 4 2 2 1 6 10 7 13 12 8
3 8 6 12 13 8 5 4 5 5 7 5 5 6 7 7 8 10 11 11 11 13 15 10 12 5 18 8 9 7 8 31 26 16 16 -4 -3 -3 -4 5 4 10 9
12 4 10 10 11 7 4 4 4 5 5 6 6 7 8 9 11 12 12 11 12 14 16 14 14 18 6 12 9 27 29 15 22 25 31 27 21 22 9 6 16 16 19
2 5 7 7 10 7 4 4 4 3 4 6 6 6 6 9 13 13 10 10 12 15 16 17 17 17 18 27 5 3 11 8 18 18 16 16 15 15 11 19 19 18 16
-4 7 5 8 9 10 5 3 7 5 4 4 7 7 8 12 13 11 10 10 11 14 13 15 15 15 20 18 20 21 30 33 31 27 23 24 23 23 22 20 21 18 16
10 6 11 12 11 16 11 7 6 5 4 5 6 6 9 13 13 12 10 10 11 12 11 16 4 2 2 3 4 4 4 5 11 19 22 25 31 31 21 16 11 18 18
12 -3 -2 -2 1 13 18 14 6 5 7 8 7 7 10 13 13 11 10 11 11 12 17 21 13 5 4 9 10 10 8 7 8 5 6 5 2 1 12 23 36 32 4
2 8 -1 -5 -1 9 17 17 6 4 10 9 7 8 12 15 13 13 12 12 13 15 10 14 4 9 9 7 5 7 7 7 7 6 6 7 6 5 6 2 2 8 15
23 13 13 7 -5 15 17 14 4 5 12 7 6 9 13 14 12 12 13 14 11 14 2 7 11 11 11 12 12 12 12 12 10 10 11 10 12 12 10 6 6 10 5
6 9 7 14 6 22 14 8 6 12 13 8 7 12 13 12 12 13 15 12 10 4 3 11 12 12 12 11 12 11 12 10 9 9 9 9 9 9 10 8 11 10 12
8 -2 18 1 2 16 16 1 15 14 15 3 11 13 13 13 15 12 15 6 9 10 12 12 12 12 12 11 11 11 11 10 11 11 11 10 11 11 11 11 11 11 12
21 19 14 17 6 14 6 7 16 22 8 13 12 13 14 12 18 5 7 8 9 11 12 11 11 11 11 10 9 10 10 10 10 10 10 10 9 9 8 8 7 7 8
6 4 15 13 3 8 9 16 22 13 8 9 12 13 14 6 7 5 11 9 11 12 11 10 10 10 9 8 8 8 8 8 8 9 9 9 9 9 8 8 8 7 8
11 11 15 7 10 12 14 19 22 10 7 13 12 11 4 6 9 9 5 9 11 11 11 11 10 10 9 8 7 8 9 9 9 9 9 9 9 9 9 9 8 9 9
12 7 8 12 7 10 10 14 8 11 13 13 10 7 7 9 8 9 10 9 11 11 11 10 9 8 7 7 8 9 9 9 10 10 10 9 9 9 9 8 6 6 5
10 12 12 11 11 9 31 3 7 14 11 12 9 8 8 8 9 9 11 11 11 11 10 10 9 8 7 8 9 9 9 10 11 11 10 10 9 9 9 10 9 10 10
12 13 12 17 15 25 1 8 14 10 13 13 8 7 9 9 9 9 10 10 10 10 10 9 8 7 8 8 8 9 10 10 10 10 9 10 9 8 8 8 8 7 7
14 15 13 15 13 9 8 10 10 12 13 8 6 8 9 8 8 8 9 9 10 10 9 9 7 7 9 9 9 9 10 9 9 9 10 11 10 10 10 10 9 8 8
12 12 15 14 11 11 9 9 11 14 11 9 8 9 8 8 8 8 8 9 9 9 9 9 8 8 9 10 9 9 9 8 7 8 8 7 7 7 7 8 8 9 9
14 15 15 16 12 11 10 11 13 14 10 7 9 8 8 8 8 8 8 8 9 8 8 8 8 8 9 9 7 8 8 9 9 10 9 9 9 8 8 9 10 10 10
Height
3116 3118 3118 3116 3115 3112 3111 3110 3109 3108 3107 3106 3104 3102 3100 3099 3097 3096 3096 3094 3092 3090 3089 3088 3088 3088 3088 3086 3088 3088 3088 3088 3087 3087 3087 3087 3089 3089 3092 3092 3092 3092 3092
3112 3113 3112 3113 3110 3108 3107 3106 3104 3102 3101 3100 3098 3097 3095 3093 3090 3090 3088 3085 3085 3084 3083 3081 3080 3080 3078 3078 3078 3079 3080 3079 3078 3077 3078 3078 3080 3081 3084 3084 3084 3082 3080
3104 3107 3107 3105 3105 3104 3101 3100 3099 3097 3095 3094 3092 3091 3089 3087 3085 3082 3079 3078 3077 3076 3074 3072 3071 3071 3070 3070 3069 3070 3069 3071 3071 3069 3069 3069 3068 3070 3075 3077 3076 3075 3073
3099 3100 3102 3100 3100 3099 3097 3096 3095 3093 3092 3090 3089 3087 3086 3083 3081 3077 3075 3071 3069 3068 3067 3065 3063 3062 3061 3060 3060 3060 3061 3061 3061 3061 3060 3060 3060 3060 3063 3068 3069 3067 3065
3096 3098 3096 3095 3095 3094 3093 3092 3092 3090 3089 3087 3086 3084 3081 3079 3077 3074 3071 3067 3064 3061 3058 3057 3055 3054 3053 3051 3050 3050 3050 3050 3051 3050 3049 3051 3052 3049 3049 3052 3057 3060 3058
3094 3095 3094 3092 3092 3091 3089 3087 3087 3086 3085 3084 3082 3080 3077 3074 3071 3068 3065 3063 3059 3056 3052 3049 3046 3043 3042 3042 3042 3040 3040 3040 3040 3039 3039 3039 3041 3042 3042 3043 3042 3043 3050
3088 3089 3089 3089 3089 3087 3085 3084 3083 3081 3080 3078 3076 3073 3070 3068 3066 3063 3060 3057 3053 3049 3046 3043 3040 3037 3034 3032 3031 3031 3029 3028 3028 3029 3029 3029 3028 3028 3029 3033 3035 3030 3034
3084 3084 3084 3084 3084 3082 3081 3080 3080 3078 3075 3073 3070 3067 3065 3062 3059 3057 3054 3051 3046 3042 3039 3036 3033 3030 3027 3026 3024 3021 3019 3016 3015 3015 3017 3018 3019 3018 3018 3018 3021 3022 3020
3078 3078 3078 3077 3079 3078 3077 3076 3075 3073 3072 3069 3066 3063 3060 3057 3054 3051 3048 3044 3040 3036 3032 3029 3026 3023 3021 3018 3017 3012 3008 3006 3005 3004 3005 3006 3008 3009 3008 3008 3008 3007 3005
3071 3072 3072 3071 3073 3074 3072 3071 3070 3069 3067 3065 3062 3059 3055 3052 3048 3046 3043 3038 3034 3031 3027 3024 3021 3018 3015 3012 3010 3006 3001 2999 2998 2996 2996 2996 2997 2998 2998 2997 2996 2995 2993
3067 3067 3066 3067 3067 3068 3067 3066 3065 3063 3062 3060 3057 3054 3051 3047 3044 3040 3038 3034 3029 3026 3023 3021 3018 3016 3013 3010 3006 3003 2999 2997 2995 2993 2991 2990 2990 2989 2989 2987 2986 2986 2985
3062 3061 3060 3061 3062 3063 3061 3059 3058 3057 3056 3055 3053 3049 3045 3042 3039 3036 3033 3029 3026 3023 3021 3019 3016 3014 3012 3010 3004 3003 2999 2997 2993 2990 2987 2986 2985 2984 2982 2981 2981 2980 2978
3056 3056 3055 3055 3056 3056 3055 3054 3053 3051 3051 3050 3048 3045 3041 3037 3034 3032 3028 3026 3023 3020 3018 3016 3014 3012 3010 3008 3003 3001 2999 2997 2995 2990 2989 2985 2984 2983 2981 2979 2977 2976 2975
3050 3050 3050 3049 3048 3049 3047 3046 3046 3046 3046 3045 3042 3040 3036 3032 3029 3028 3025 3023 3020 3018 3016 3014 3013 3010 3008 3006 3003 3000 2997 2995 2991 2988 2984 2985 2983 2982 2980 2978 2976 2974 2972
3041 3042 3043 3042 3043 3043 3041 3040 3040 3040 3040 3039 3037 3035 3031 3028 3026 3024 3022 3020 3018 3016 3015 3013 3011 3008 3006 3004 3002 2999 2996 2993 2989 2985 2985 2983 2981 2979 2978 2976 2974 2973 2971
3033 3034 3035 3035 3037 3036 3034 3035 3034 3033 3034 3032 3032 3029 3027 3024 3023 3021 3019 3018 3016 3015 3013 3011 3009 3006 3004 3002 3000 2998 2995 2992 2989 2985 2982 2980 2978 2976 2974 2973 2972 2971 2968
3024 3025 3026 3028 3029 3028 3028 3027 3028 3027 3028 3028 3026 3025 3023 3020 3019 3019 3017 3015 3014 3012 3011 3009 3007 3005 3003 3001 2998 2996 2993 2990 2986 2983 2981 2979 2977 2974 2972 2970 2968 2966 2964
3018 3017 3020 3021 3022 3022 3021 3021 3021 3022 3023 3022 3022 3020 3019 3018 3017 3016 3015 3013 3011 3010 3008 3007 3005 3003 3001 2998 2996 2993 2991 2988 2985 2983 2981 2979 2977 2974 2971 2969 2966 2964 2962
3011 3012 3014 3015 3015 3014 3014 3015 3016 3017 3017 3017 3016 3016 3017 3016 3015 3014 3013 3011 3010 3008 3007 3005 3004 3002 2999 2996 2994 2991 2989 2987 2985 2982 2980 2978 2976 2973 2970 2968 2965 2962 2960
3006 3006 3007 3008 3007 3007 3008 3010 3012 3013 3013 3013 3012 3013 3014 3013 3013 3012 3010 3009 3008 3007 3006 3004 3002 3000 2998 2995 2993 2990 2988 2986 2984 2981 2979 2976 2974 2972 2969 2967 2964 2961 2959
3000 2999 2999 3000 3001 3001 3002 3005 3006 3007 3008 3008 3008 3010 3010 3010 3010 3009 3008 3007 3006 3006 3004 3002 3000 2999 2996 2993 2991 2988 2986 2984 2981 2979 2976 2973 2970 2968 2965 2963 2960 2958 2955
2993 2993 2994 2994 2996 2996 2998 3000 3001 3002 3003 3004 3005 3007 3007 3008 3007 3007 3006 3005 3004 3003 3002 3000 2999 2997 2995 2992 2990 2987 2985 2982 2979 2976 2973 2969 2966 2963 2960 2957 2954 2951 2948
2987 2987 2988 2989 2990 2992 2994 2995 2997 2997 2999 3000 3002 3003 3004 3005 3005 3004 3004 3003 3002 3001 3000 2998 2996 2994 2992 2990 2988 2985 2982 2979 2976 2973 2969 2966 2962 2958 2956 2953 2950 2947 2945
2981 2982 2982 2983 2985 2987 2989 2991 2992 2993 2995 2997 2999 3000 3002 3002 3002 3002 3001 3000 3000 2998 2997 2996 2994 2992 2990 2988 2985 2982 2979 2976 2972 2969 2966 2963 2960 2956 2953 2950 2946 2942 2938
2975 2976 2976 2977 2980 2982 2984 2986 2988 2989 2992 2994 2996 2997 2999 3000 2999 2999 2999 2998 2997 2996 2994 2993 2992 2990 2989 2987 2984 2981 2977 2973 2970 2966 2963 2960 2957 2953 2949 2944 2939 2935 2931
2969 2969 2970 2971 2974 2977 2980 2982 2983 2986 2988 2991 2993 2995 2996 2997 2997 2997 2996 2996 2995 2993 2992 2990 2989 2987 2986 2984 2980 2976 2971 2968 2965 2963 2960 2956 2952 2948 2944 2939 2935 2931 2927